Albert Lea, MN

7:04 PM CDT on July 27, 2017 (GMT -0500)
Albert Lea Municipal

Weather History for KAEL - August, 2013

Change the Weather History Date:

Friday, August 2, 2013

  Actual Average Record
Temperature  
Mean Temperature 67 °F -  
Max Temperature 77 °F 76 °F 89 °F (2005)
Min Temperature 57 °F 59 °F 51 °F (2002)
Cooling Degree Days 2    
Growing Degree Days 17 (Base 50)    
Moisture  
Dew Point 56 °F    
Average Humidity 67    
Maximum Humidity 94    
Minimum Humidity 36    
Precipitation  
Precipitation 0.00 in - - ()
Sea Level Pressure  
Sea Level Pressure 29.96 in    
Wind  
Wind Speed 3 mph (NNW)    
Max Wind Speed 10 mph    
Max Gust Speed 16 mph    
Visibility 10 miles    
Events Rain    
Averages and records for this station are not official NWS values.
T = Trace of Precipitation, MM = Missing Value Source: NWS Daily Summary

Daily Weather History Graph

Daily Weather History Graph

Search for Another Location

Airport or City:

Trip Planner

Search our weather history database for the weather conditions in past years. The results will help you decide how hot, cold, wet, or windy it might be!

Date:

Astronomy

Aug. 02, 2013 Rise Set
Actual Time 6:03 AM CDT 8:34 PM CDT
Civil Twilight 5:31 AM CDT 9:07 PM CDT
Nautical Twilight 4:50 AM CDT 9:47 PM CDT
Astronomical Twilight 4:04 AM CDT 10:33 PM CDT
Moon 2:23 AM CDT (8/2) 5:34 PM CDT (8/2)
Length of Visible Light 15h 35m
Length of Day
14h 30m
Waning Crescent, 15% of the Moon is Illuminated
Aug 2
Waning Crescent
Aug 6
New
Aug 14
First Quarter
Aug 20
Full
Aug 28
Last Quarter

Hourly Weather History & Observations

Time (CDT) Temp. Dew Point Humidity Pressure Visibility Wind Dir Wind Speed Gust Speed Precip Events Conditions
12:13 AM 68.0 °F 62.6 °F 83% 29.89 in 10.0 mi West 3.5 mph - N/A   Clear
12:33 AM 68.0 °F 62.6 °F 83% 29.89 in 10.0 mi WNW 4.6 mph - N/A   Clear
12:53 AM 66.2 °F 62.6 °F 88% 29.88 in 10.0 mi West 3.5 mph - N/A   Clear
1:13 AM 66.2 °F 62.6 °F 88% 29.89 in 10.0 mi West 4.6 mph - N/A   Clear
1:33 AM 66.2 °F 60.8 °F 83% 29.90 in 10.0 mi West 4.6 mph - N/A   Mostly Cloudy
1:52 AM 66.2 °F 60.8 °F 83% 29.90 in 10.0 mi West 3.5 mph - N/A   Scattered Clouds
2:13 AM 66.2 °F 59.0 °F 78% 29.91 in 10.0 mi WNW 4.6 mph - N/A   Clear
2:33 AM 64.4 °F 57.2 °F 77% 29.90 in 10.0 mi West 3.5 mph - N/A   Clear
2:52 AM 64.4 °F 57.2 °F 77% 29.89 in 10.0 mi WNW 3.5 mph - N/A   Clear
3:13 AM 64.4 °F 57.2 °F 77% 29.90 in 10.0 mi WNW 3.5 mph - N/A   Clear
3:33 AM 64.4 °F 57.2 °F 77% 29.89 in 10.0 mi Calm Calm - N/A   Clear
3:53 AM 64.4 °F 57.2 °F 77% 29.90 in 10.0 mi Calm Calm - N/A   Scattered Clouds
4:13 AM 64.4 °F 57.2 °F 77% 29.90 in 10.0 mi Calm Calm - N/A   Scattered Clouds
4:33 AM 64.4 °F 57.2 °F 77% 29.89 in 10.0 mi Calm Calm - N/A   Clear
4:53 AM 62.6 °F 57.2 °F 82% 29.89 in 10.0 mi Calm Calm - N/A   Clear
5:13 AM 62.6 °F 57.2 °F 82% 29.90 in 10.0 mi Calm Calm - N/A   Clear
5:33 AM 62.6 °F 57.2 °F 82% 29.91 in 10.0 mi Calm Calm - N/A   Clear
5:53 AM 62.6 °F 57.2 °F 82% 29.92 in 10.0 mi Calm Calm - N/A   Clear
6:13 AM 62.6 °F 57.2 °F 82% 29.92 in 10.0 mi Calm Calm - N/A   Clear
6:33 AM 62.6 °F 57.2 °F 82% 29.93 in 10.0 mi Calm Calm - N/A   Clear
6:53 AM 62.6 °F 57.2 °F 82% 29.93 in 10.0 mi Calm Calm - N/A   Scattered Clouds
7:13 AM 64.4 °F 57.2 °F 77% 29.94 in 10.0 mi Calm Calm - N/A   Overcast
7:33 AM 64.4 °F 57.2 °F 77% 29.94 in 10.0 mi Calm Calm - N/A   Mostly Cloudy
7:53 AM 64.4 °F 57.2 °F 77% 29.93 in 10.0 mi Calm Calm - N/A   Scattered Clouds
8:13 AM 66.2 °F 57.2 °F 73% 29.93 in 10.0 mi NNW 3.5 mph - N/A   Clear
8:33 AM 66.2 °F 57.2 °F 73% 29.93 in 10.0 mi North 5.8 mph - N/A   Clear
8:53 AM 69.8 °F 57.2 °F 64% 29.93 in 10.0 mi North 9.2 mph - N/A   Clear
9:13 AM 69.8 °F 57.2 °F 64% 29.92 in 10.0 mi North 9.2 mph - N/A   Clear
9:33 AM 71.6 °F 55.4 °F 57% 29.93 in 10.0 mi NNE 5.8 mph - N/A   Clear
9:53 AM 71.6 °F 55.4 °F 57% 29.93 in 10.0 mi NE 9.2 mph - N/A   Clear
10:13 AM 73.4 °F 55.4 °F 53% 29.94 in 10.0 mi North 9.2 mph - N/A   Clear
10:33 AM 73.4 °F 55.4 °F 53% 29.94 in 10.0 mi North 9.2 mph - N/A   Clear
10:53 AM 73.4 °F 53.6 °F 50% 29.94 in 10.0 mi North 9.2 mph - N/A   Clear
11:13 AM 73.4 °F 48.2 °F 41% 29.95 in 10.0 mi North 10.4 mph 16.1 mph N/A   Clear
11:33 AM 73.4 °F 50.0 °F 44% 29.95 in 10.0 mi North 6.9 mph - N/A   Clear
11:53 AM 73.4 °F 51.8 °F 47% 29.95 in 10.0 mi NNE 10.4 mph - N/A   Clear
12:13 PM 75.2 °F 51.8 °F 44% 29.95 in 10.0 mi NNE 9.2 mph - N/A   Clear
12:33 PM 75.2 °F 51.8 °F 44% 29.95 in 10.0 mi North 6.9 mph - N/A   Clear
12:53 PM 75.2 °F 48.2 °F 38% 29.95 in 10.0 mi NE 5.8 mph - N/A   Clear
1:13 PM 77.0 °F 50.0 °F 39% 29.96 in 10.0 mi North 4.6 mph - N/A   Clear
1:33 PM 77.0 °F 48.2 °F 36% 29.97 in 10.0 mi North 3.5 mph - N/A   Clear
1:53 PM 75.2 °F 51.8 °F 44% 29.98 in 10.0 mi NNW 6.9 mph - N/A   Clear
2:13 PM 77.0 °F 51.8 °F 41% 29.98 in 10.0 mi NNW 5.8 mph - N/A   Clear
2:33 PM 75.2 °F 51.8 °F 44% 29.98 in 10.0 mi NNW 5.8 mph - N/A   Scattered Clouds
2:53 PM 75.2 °F 53.6 °F 47% 29.98 in 10.0 mi North 5.8 mph - N/A   Scattered Clouds
3:13 PM 75.2 °F 51.8 °F 44% 29.97 in 10.0 mi North 6.9 mph - N/A   Clear
3:33 PM 75.2 °F 53.6 °F 47% 29.97 in 10.0 mi NNW 5.8 mph - N/A   Clear
3:53 PM 73.4 °F 53.6 °F 50% 29.98 in 10.0 mi NNW 6.9 mph - N/A   Clear
4:13 PM 73.4 °F 53.6 °F 50% 29.98 in 10.0 mi NNW 5.8 mph - N/A   Scattered Clouds
4:33 PM 73.4 °F 53.6 °F 50% 29.98 in 10.0 mi NNW 5.8 mph - N/A   Scattered Clouds
4:53 PM 71.6 °F 53.6 °F 53% 29.98 in 10.0 mi NW 4.6 mph - N/A   Scattered Clouds
5:13 PM 71.6 °F 53.6 °F 53% 29.99 in 10.0 mi NNW 5.8 mph - N/A   Scattered Clouds
5:33 PM 71.6 °F 53.6 °F 53% 29.98 in 10.0 mi Calm Calm - N/A Rain Light Rain
5:53 PM 71.6 °F 55.4 °F 57% 29.98 in 10.0 mi NW 3.5 mph - N/A Rain Light Rain
6:13 PM 69.8 °F 55.4 °F 60% 29.98 in 10.0 mi NNW 3.5 mph - N/A Rain Light Rain
6:33 PM 69.8 °F 55.4 °F 60% 29.98 in 10.0 mi Calm Calm - N/A   Scattered Clouds
6:53 PM 69.8 °F 57.2 °F 64% 29.99 in 10.0 mi Calm Calm - N/A   Mostly Cloudy
7:13 PM 69.8 °F 57.2 °F 64% 29.99 in 10.0 mi NNW 3.5 mph - N/A   Mostly Cloudy
7:33 PM 69.8 °F 57.2 °F 64% 30.00 in 10.0 mi NNW 3.5 mph - N/A   Overcast
7:53 PM 69.8 °F 57.2 °F 64% 29.99 in 10.0 mi Calm Calm - N/A   Scattered Clouds
8:13 PM 68.0 °F 57.2 °F 68% 30.00 in 10.0 mi Calm Calm - N/A   Scattered Clouds
8:33 PM 68.0 °F 57.2 °F 68% 30.00 in 10.0 mi Calm Calm - N/A   Clear
8:53 PM 66.2 °F 57.2 °F 73% 30.01 in 10.0 mi Calm Calm - N/A   Clear
9:13 PM 64.4 °F 57.2 °F 77% 30.02 in 10.0 mi Calm Calm - N/A   Clear
9:33 PM 62.6 °F 57.2 °F 82% 30.03 in 10.0 mi Calm Calm - N/A   Clear
9:53 PM 62.6 °F 57.2 °F 82% 30.04 in 10.0 mi Calm Calm - N/A   Clear
10:13 PM 62.6 °F 55.4 °F 77% 30.05 in 10.0 mi Calm Calm - N/A   Clear
10:33 PM 59.0 °F 55.4 °F 88% 30.06 in 10.0 mi Calm Calm - N/A   Clear
10:53 PM 57.2 °F 55.4 °F 94% 30.06 in 10.0 mi Calm Calm - N/A   Clear
11:12 PM 59.0 °F 55.4 °F 88% 30.06 in 10.0 mi Calm Calm - N/A   Clear
11:33 PM 57.2 °F 55.4 °F 94% 30.06 in 10.0 mi Calm Calm - N/A   Clear
11:53 PM 57.2 °F 55.4 °F 94% 30.07 in 10.0 mi Calm Calm - N/A   Clear